Wind_Speed
5 4 5 8 11 14 15 16 18 21 23 26 28 31 33 34 34 34 34 34 32 29 27 28 27 27 22 18 12 10 10 13 16 13 22 16 22 19 22 30 33 39 41 37 25
3 4 5 4 3 4 5 7 10 12 15 17 20 22 25 29 33 35 36 36 36 33 30 27 31 29 25 23 16 16 8 16 17 16 15 15 16 15 17 22 27 34 38 38 31
2 1 1 1 2 2 2 2 2 3 4 5 6 8 11 15 18 25 30 32 34 34 34 32 31 31 29 27 23 18 20 12 12 11 10 11 7 9 14 18 22 29 33 35 32
5 5 5 4 4 4 4 5 5 5 6 6 5 5 5 6 8 12 18 24 29 31 33 35 35 33 33 30 27 24 23 19 22 21 6 11 5 9 11 14 16 23 28 33 34
11 12 12 11 11 10 11 11 12 11 11 11 11 9 8 9 10 9 11 15 20 24 28 33 37 36 34 32 31 27 28 24 21 18 14 13 9 7 5 10 12 16 21 26 30
15 16 17 17 18 18 18 19 19 19 18 18 18 17 15 15 16 13 13 12 13 17 24 29 34 36 35 34 34 33 29 30 27 21 18 17 12 10 9 4 10 11 16 20 23
16 17 18 19 21 23 24 24 24 25 25 25 24 25 23 20 21 19 18 17 16 14 19 25 28 32 35 35 35 36 31 29 26 26 24 27 20 14 13 11 7 9 10 15 18
17 18 19 20 23 25 26 27 28 28 29 30 30 29 30 28 27 27 24 22 21 17 18 21 21 29 33 33 35 33 35 33 29 25 22 21 19 18 11 12 8 6 7 10 14
20 21 22 23 22 21 23 26 27 29 30 32 33 33 33 33 31 33 31 29 26 24 22 21 20 25 31 31 34 32 32 33 33 25 22 16 17 22 19 17 13 8 5 6 10
16 17 18 19 20 21 23 24 26 27 27 27 30 30 29 32 34 35 37 35 32 30 28 24 24 26 26 28 31 34 34 34 34 32 21 16 16 19 22 21 16 15 10 9 11
14 14 15 15 17 19 20 23 25 27 28 28 29 30 30 30 30 33 35 39 38 35 33 32 29 28 23 25 27 30 34 36 36 38 37 25 21 15 19 19 17 18 13 10 10
15 17 20 21 20 22 23 23 26 26 27 29 29 29 27 25 25 30 33 37 39 38 39 38 34 30 26 25 27 28 30 35 37 39 43 41 35 26 26 23 21 20 19 14 11
17 20 20 24 25 25 29 30 29 31 28 29 31 31 31 28 27 28 31 36 38 40 42 40 38 36 31 29 27 29 30 31 33 37 39 41 44 39 28 30 28 24 23 21 17
21 24 27 27 30 31 30 30 30 35 37 34 31 33 34 34 30 30 32 35 38 40 42 41 42 40 36 32 30 30 31 30 31 36 39 40 41 44 42 37 31 28 26 29 23
26 29 27 29 32 33 34 36 32 39 39 41 38 33 36 34 29 31 30 33 35 41 43 42 43 43 41 40 36 32 30 31 31 35 36 35 40 39 43 39 39 34 31 30 26
31 35 36 38 35 35 38 40 39 43 44 43 44 39 35 35 31 32 29 28 27 34 42 42 41 43 45 42 40 35 33 32 34 33 32 32 34 39 41 47 42 40 39 32 30
38 41 43 43 37 42 44 44 45 45 48 44 43 44 40 36 33 33 28 27 26 27 35 40 45 44 43 42 43 40 39 39 35 32 30 32 33 35 39 43 49 46 45 41 39
43 45 47 45 44 48 48 49 48 52 50 46 47 43 45 41 35 34 29 27 27 26 27 34 42 47 47 48 47 44 43 43 40 38 35 34 35 37 37 39 43 46 49 50 46
47 47 49 50 51 53 52 50 55 56 53 49 49 50 47 46 38 34 32 27 25 23 25 28 35 41 47 49 49 47 46 44 42 43 40 39 40 39 39 39 40 44 48 53 51
53 53 55 56 56 57 55 53 59 59 55 49 48 52 51 48 41 36 33 30 26 20 18 22 26 35 42 47 47 47 44 45 44 42 41 41 40 42 43 42 42 44 45 49 51
57 60 60 60 58 57 58 57 62 60 56 49 46 49 55 50 45 37 34 31 31 23 19 17 19 24 32 41 44 43 43 43 40 41 42 42 41 42 45 44 44 45 46 45 48
63 65 65 64 60 61 57 59 60 58 54 49 45 44 53 52 46 38 37 34 37 31 26 21 18 17 19 26 33 37 38 38 38 40 41 41 40 42 45 46 46 47 47 46 45
65 62 62 63 65 63 58 58 59 56 53 47 43 42 50 53 48 42 43 40 42 39 33 26 25 22 19 19 23 26 29 30 31 32 34 33 36 37 38 41 44 45 47 47 46
66 65 66 68 67 63 62 64 59 54 51 44 43 44 47 54 52 45 47 44 40 44 40 35 33 29 25 23 24 25 27 32 36 39 40 42 42 41 40 41 42 43 43 45 46
70 71 71 69 67 67 67 63 55 51 47 40 41 41 49 57 57 51 48 48 44 43 48 43 40 37 33 28 24 26 28 28 30 32 33 34 33 35 39 45 47 44 43 44 45
75 75 74 69 65 67 67 55 48 48 42 36 40 39 47 59 58 54 51 51 49 45 45 44 43 42 40 33 30 30 28 28 29 33 32 32 34 35 35 33 36 43 47 47 46
79 77 73 70 69 68 59 49 44 42 35 37 39 40 44 54 59 58 54 55 51 44 44 45 45 45 41 36 33 32 33 32 30 30 34 37 38 39 41 40 42 42 44 48 51
Wind_Direction
124 146 181 210 221 226 229 234 237 240 243 244 246 249 250 249 249 248 249 250 250 248 246 241 245 246 237 241 235 181 184 186 233 280 307 333 345 355 11 26 24 30 25 24 33
98 106 112 125 149 179 206 228 238 243 244 246 246 247 248 248 248 247 246 245 248 245 240 239 240 243 239 240 230 207 158 221 228 259 295 303 339 345 11 26 32 38 33 26 30
336 12 83 133 184 165 165 183 219 228 232 235 240 245 253 255 252 251 247 242 240 240 238 234 237 238 238 235 234 226 223 213 240 254 261 275 328 340 8 27 37 39 39 31 29
270 263 267 272 272 263 270 272 265 265 270 264 254 239 239 252 255 251 252 250 245 240 235 233 230 234 234 234 235 227 225 215 235 249 214 238 307 344 7 26 18 25 36 36 29
270 275 273 272 272 276 281 285 288 279 279 280 276 267 265 278 263 260 260 252 245 241 238 235 231 228 229 232 233 232 231 226 228 224 250 249 275 308 338 28 5 14 24 34 30
270 269 271 272 273 273 272 273 276 278 278 278 282 281 279 281 273 271 267 263 253 241 238 237 234 235 230 229 230 229 228 232 233 231 220 235 264 266 268 348 356 5 20 26 27
276 275 274 274 273 272 272 272 272 271 272 272 272 275 274 274 277 274 270 269 260 248 240 240 237 238 234 232 229 229 227 227 234 238 239 244 260 247 258 278 295 350 10 6 23
281 282 280 281 281 276 272 271 272 272 272 270 270 269 270 270 267 271 268 264 261 259 248 247 239 238 236 231 235 233 230 231 226 238 243 242 252 248 242 261 285 323 350 354 8
286 285 284 283 284 285 281 277 276 276 273 272 271 267 267 266 262 266 264 262 261 257 253 251 242 240 238 234 231 225 229 228 230 233 230 230 236 241 235 239 255 267 314 357 347
301 303 305 305 303 297 293 291 286 278 274 274 274 272 269 266 263 260 261 260 258 254 252 249 247 245 242 233 236 229 228 227 228 217 218 225 241 240 232 241 254 249 257 302 328
329 331 333 333 329 325 316 304 298 293 281 274 278 275 270 265 263 261 258 259 256 253 253 247 245 246 245 236 230 233 233 230 227 223 221 220 236 227 211 235 251 261 265 267 297
318 318 317 315 318 313 304 304 307 301 297 286 279 279 271 265 263 261 258 256 254 253 249 248 245 245 238 235 230 229 228 232 230 231 229 231 228 231 219 231 243 250 263 259 265
312 316 312 311 315 321 315 300 295 291 289 290 283 276 271 268 268 261 260 258 252 248 248 248 247 244 238 234 230 227 228 228 229 232 231 232 230 223 224 221 228 232 251 266 271
318 313 309 308 314 314 304 311 301 296 286 277 279 277 271 268 269 270 264 256 253 250 247 244 242 242 238 236 232 226 227 228 227 230 226 233 233 230 227 227 227 235 237 258 264
310 308 305 307 310 309 303 303 298 297 299 279 266 266 273 269 265 266 263 263 253 249 247 241 240 237 235 233 231 228 227 227 229 233 231 230 236 232 233 230 229 230 231 245 255
304 305 308 311 312 304 300 304 301 295 292 277 268 258 264 264 261 262 262 270 257 253 247 242 239 235 233 233 232 231 229 229 233 235 233 235 237 239 231 227 228 232 231 230 233
305 305 307 310 303 301 305 303 295 294 287 274 264 259 256 260 259 258 260 269 266 264 245 238 236 235 235 233 232 233 233 233 233 235 236 235 238 237 237 234 229 231 233 231 237
303 304 304 303 301 303 301 301 292 289 287 281 259 252 249 250 251 254 255 258 264 271 249 239 235 232 230 227 230 231 233 236 236 238 239 240 240 242 243 240 240 230 230 234 237
304 303 303 300 300 301 301 299 294 294 289 278 265 249 242 246 244 243 250 247 253 266 250 242 235 232 229 229 228 229 232 235 237 238 239 242 244 245 243 240 239 238 232 232 233
303 301 303 299 299 300 302 298 295 298 290 277 266 252 242 237 240 234 240 241 239 250 252 244 239 233 228 227 230 232 233 235 238 240 242 242 244 246 246 245 241 239 236 233 233
303 303 302 300 300 304 304 301 298 297 292 283 266 255 244 232 233 233 235 232 230 230 237 237 234 232 226 225 227 229 232 236 239 244 245 243 242 245 248 247 245 242 240 235 233
301 300 300 299 302 305 302 300 298 296 291 283 265 248 240 230 224 223 227 227 224 224 229 230 224 221 217 224 230 236 241 244 244 244 244 243 244 242 243 244 245 244 241 238 234
301 303 301 301 302 303 300 303 297 294 289 280 265 244 229 224 217 216 221 224 223 220 223 225 232 227 218 223 232 235 237 239 239 242 243 241 240 239 241 242 243 246 245 239 234
300 302 301 302 303 301 301 300 297 293 288 277 256 244 221 218 212 211 218 223 221 225 219 221 224 229 230 231 238 242 244 245 246 247 247 246 246 246 240 240 245 243 242 239 235
302 302 301 303 300 299 302 299 293 289 284 267 251 236 217 216 208 207 214 218 221 221 226 221 227 228 233 239 246 250 245 242 244 244 245 247 246 248 249 245 245 246 242 242 237
301 300 300 299 299 298 302 294 290 287 272 252 240 227 219 213 209 204 208 214 218 220 225 226 226 231 232 237 242 249 251 251 249 248 249 250 248 246 248 246 241 242 242 242 241
302 301 299 299 299 299 298 289 286 278 256 241 230 221 218 215 207 204 204 213 219 219 223 226 225 230 234 238 242 246 251 249 250 252 251 251 254 257 256 253 244 241 242 243 243
Height
10925 10925 10925 10925 10926 10927 10928 10928 10928 10929 10929 10930 10930 10931 10933 10934 10936 10938 10939 10941 10944 10948 10952 10954 10952 10952 10958 10958 10961 10962 10961 10963 10961 10961 10958 10956 10955 10954 10950 10944 10937 10931 10927 10924 10919
10926 10926 10927 10927 10927 10927 10927 10927 10927 10927 10926 10926 10927 10927 10927 10928 10929 10930 10932 10934 10937 10941 10945 10948 10947 10949 10954 10955 10958 10960 10961 10959 10961 10961 10960 10959 10957 10956 10951 10948 10943 10936 10932 10929 10923
10927 10927 10927 10927 10927 10927 10927 10927 10927 10927 10926 10926 10926 10926 10925 10924 10925 10925 10925 10927 10930 10933 10938 10940 10942 10945 10948 10951 10954 10956 10958 10958 10958 10958 10959 10960 10958 10957 10954 10949 10946 10940 10937 10934 10928
10927 10927 10927 10927 10928 10927 10927 10927 10926 10926 10925 10924 10924 10924 10924 10923 10923 10921 10920 10922 10924 10927 10930 10932 10935 10938 10942 10946 10949 10951 10952 10957 10957 10959 10957 10958 10957 10957 10953 10951 10948 10946 10939 10936 10931
10926 10926 10926 10926 10926 10926 10926 10926 10925 10925 10924 10923 10922 10922 10923 10922 10920 10919 10918 10918 10920 10922 10923 10925 10927 10931 10936 10941 10943 10947 10948 10952 10954 10957 10957 10957 10958 10958 10955 10953 10951 10949 10946 10940 10938
10923 10923 10924 10924 10924 10924 10923 10923 10923 10922 10922 10921 10920 10919 10919 10919 10917 10917 10916 10916 10917 10918 10918 10918 10921 10926 10931 10934 10937 10940 10945 10947 10950 10953 10954 10953 10955 10957 10955 10952 10952 10951 10949 10944 10940
10919 10920 10920 10920 10920 10920 10919 10919 10919 10918 10918 10917 10917 10916 10915 10916 10913 10913 10913 10913 10913 10914 10914 10913 10918 10918 10922 10928 10929 10935 10939 10942 10945 10947 10950 10949 10950 10954 10953 10953 10952 10950 10950 10949 10943
10915 10915 10915 10915 10915 10914 10914 10913 10913 10913 10912 10911 10911 10910 10910 10910 10909 10908 10908 10908 10909 10910 10911 10910 10913 10912 10915 10921 10924 10929 10932 10936 10941 10942 10945 10946 10947 10948 10953 10951 10950 10952 10951 10950 10947
10910 10910 10910 10910 10909 10909 10908 10908 10907 10906 10905 10904 10903 10903 10903 10902 10904 10902 10902 10903 10904 10906 10906 10907 10909 10908 10910 10915 10918 10922 10925 10930 10935 10939 10940 10942 10944 10945 10949 10951 10951 10951 10952 10952 10951
10906 10905 10905 10905 10904 10904 10903 10903 10900 10899 10898 10897 10896 10896 10896 10894 10895 10896 10894 10896 10898 10899 10901 10903 10903 10904 10908 10911 10912 10916 10920 10924 10929 10934 10936 10937 10940 10943 10945 10947 10949 10949 10949 10949 10950
10902 10901 10900 10900 10899 10898 10897 10896 10893 10892 10891 10891 10889 10888 10889 10887 10887 10887 10887 10887 10889 10892 10894 10895 10898 10900 10905 10907 10908 10909 10913 10916 10922 10927 10930 10933 10936 10940 10944 10945 10945 10945 10947 10947 10948
10898 10897 10896 10894 10894 10893 10892 10890 10886 10885 10885 10883 10882 10880 10880 10880 10881 10879 10879 10878 10880 10884 10884 10886 10891 10895 10899 10901 10904 10905 10907 10910 10915 10918 10923 10929 10933 10937 10940 10941 10943 10943 10943 10945 10946
10894 10893 10891 10889 10888 10887 10885 10883 10878 10877 10876 10874 10873 10873 10871 10872 10873 10872 10871 10869 10871 10873 10874 10880 10883 10886 10892 10896 10899 10901 10902 10904 10908 10910 10919 10921 10926 10931 10935 10937 10939 10941 10941 10941 10943
10888 10886 10885 10884 10882 10880 10877 10875 10871 10868 10867 10865 10864 10863 10863 10863 10864 10863 10862 10861 10862 10864 10866 10870 10873 10878 10884 10889 10893 10895 10897 10900 10901 10902 10911 10914 10918 10923 10929 10933 10934 10936 10937 10938 10941
10882 10879 10878 10877 10876 10871 10867 10865 10863 10858 10856 10854 10854 10853 10852 10853 10856 10854 10854 10852 10853 10852 10854 10860 10863 10868 10874 10878 10883 10888 10891 10893 10895 10897 10905 10908 10909 10918 10920 10925 10928 10930 10934 10936 10937
10874 10870 10869 10866 10866 10860 10856 10854 10851 10847 10842 10841 10843 10845 10843 10843 10847 10845 10845 10844 10844 10842 10845 10850 10855 10858 10863 10870 10876 10881 10884 10886 10888 10894 10899 10902 10904 10907 10911 10916 10921 10924 10928 10932 10934
10864 10860 10856 10856 10851 10847 10843 10840 10837 10831 10829 10828 10831 10833 10833 10832 10836 10836 10836 10835 10835 10833 10836 10839 10843 10849 10856 10862 10867 10872 10876 10879 10883 10888 10892 10895 10896 10899 10902 10907 10914 10919 10921 10925 10929
10854 10850 10845 10841 10838 10833 10829 10826 10820 10814 10815 10816 10817 10817 10820 10820 10824 10827 10829 10828 10828 10826 10827 10830 10833 10838 10843 10849 10855 10861 10867 10871 10877 10881 10885 10887 10889 10891 10895 10900 10904 10911 10914 10918 10922
10842 10838 10832 10827 10823 10819 10815 10810 10800 10797 10799 10800 10800 10802 10806 10808 10813 10818 10821 10822 10822 10820 10820 10821 10824 10828 10833 10839 10845 10851 10857 10863 10869 10873 10878 10879 10882 10884 10887 10892 10895 10899 10905 10909 10913
10829 10825 10820 10812 10808 10803 10799 10791 10781 10782 10778 10783 10785 10787 10791 10796 10801 10808 10812 10815 10816 10815 10814 10815 10817 10820 10825 10830 10838 10844 10850 10854 10860 10866 10869 10873 10875 10876 10877 10880 10884 10888 10893 10897 10903
10816 10810 10804 10796 10792 10788 10781 10774 10765 10763 10759 10763 10768 10770 10774 10784 10790 10799 10805 10808 10809 10810 10811 10811 10812 10814 10818 10824 10830 10836 10840 10846 10853 10856 10858 10863 10866 10867 10867 10870 10873 10876 10880 10888 10893
10801 10795 10788 10780 10776 10771 10764 10756 10748 10746 10743 10743 10747 10751 10757 10770 10780 10787 10793 10798 10800 10804 10806 10809 10810 10811 10814 10818 10824 10830 10836 10840 10843 10844 10848 10853 10856 10855 10856 10859 10861 10865 10870 10877 10884
10783 10779 10771 10764 10758 10753 10747 10740 10731 10728 10725 10725 10728 10733 10742 10756 10765 10775 10781 10785 10790 10796 10800 10804 10805 10808 10812 10816 10819 10823 10826 10830 10834 10837 10839 10843 10845 10846 10848 10851 10853 10857 10859 10865 10872
10763 10761 10756 10745 10739 10735 10729 10722 10713 10711 10707 10708 10708 10716 10729 10739 10750 10761 10767 10775 10780 10786 10792 10796 10798 10801 10806 10811 10814 10817 10820 10822 10824 10827 10830 10832 10834 10837 10841 10843 10844 10846 10849 10853 10859
10744 10738 10733 10730 10723 10712 10708 10703 10696 10692 10689 10690 10693 10702 10714 10722 10735 10746 10755 10762 10770 10775 10780 10787 10790 10795 10799 10804 10807 10809 10812 10815 10817 10818 10820 10822 10824 10826 10828 10833 10836 10839 10842 10844 10849
10723 10718 10712 10707 10703 10696 10690 10680 10679 10673 10672 10675 10679 10690 10699 10705 10722 10734 10742 10749 10757 10764 10769 10775 10783 10786 10790 10796 10800 10802 10804 10806 10809 10810 10813 10813 10815 10818 10820 10823 10825 10827 10831 10833 10836
10701 10695 10688 10686 10681 10675 10669 10663 10660 10657 10659 10662 10669 10678 10685 10695 10709 10720 10729 10738 10746 10753 10759 10764 10772 10776 10782 10789 10793 10795 10795 10798 10801 10803 10803 10805 10806 10809 10810 10813 10816 10816 10818 10822 10825